{"data":{"norad_id":69528,"epoch":"2026-09-19T22:50:56.765760Z","epoch_age_seconds":72836,"freshness":"FRESH","line1":"1 69528U 26133W   26262.95204590  .00013328  00000+0  40475-3 0  9996","line2":"2 69528  53.1569 232.0038 0002353 109.1625 250.9633 15.34410900 16682","mean_motion":15.344109,"eccentricity":0.0002353,"inclination_deg":53.1569,"raan_deg":232.0038,"arg_perigee_deg":109.1625,"mean_anomaly_deg":250.9633,"bstar":0.00040475,"rev_number":1668,"period_min":93.847091414692,"perigee_km":461.06120121629,"apogee_km":464.28048538735,"semimajor_km":6840.8078433018,"source":"CELESTRAK","updated_at":"2026-09-20T09:00:44.239448Z"}}